Date String (YYYY-MM-DD hh:mm:ss) UTC,Instrument flags,Ambient pressure (hPa),Sample flow (lpm),Bypass flow (lpm),Sample temperature (°C),Ambient temperature (°C),ASC tube jacket temperature (°C),LED temperature (°C),Box temperature (°C),Sample RH (%),Span deviation,Mass concentration (μg/m³),Mass concentration (μg/m³),Mass concentration (μg/m³)
DateTimeUTC,F1_M11,P_M11,Q1_M11,Q2_M11,T1_M11,T2_M11,T3_M11,T4_M11,T5_M11,U1_M11,ZSPAN_M11,X0_M11,X2_M11,X1_M11
2021-11-25 08:00:00,,0835.5,5.00,0.00,22.1,23.0,00.0,31.0,24.1,14.9,0000.0,0009.36,0006.61,0006.25
2021-11-25 08:01:00,,0835.5,5.00,0.00,22.2,22.8,00.0,31.0,24.2,14.8,0000.0,0009.26,0006.54,0006.22
2021-11-25 08:02:00,,0835.5,4.99,0.00,22.2,22.6,00.0,31.1,24.2,14.8,0000.0,0009.21,0006.54,0006.23
2021-11-25 08:03:00,,0835.5,5.00,0.00,22.3,22.4,00.0,31.1,24.1,14.8,0000.0,0009.38,0006.56,0006.24
2021-11-25 08:04:00,,0835.4,5.00,0.00,22.3,22.2,00.0,31.1,24.0,14.8,0000.0,0009.41,0006.54,0006.25
2021-11-25 08:05:00,,0835.4,5.01,0.00,22.2,22.1,00.0,31.1,24.0,14.8,0000.0,0009.42,0006.55,0006.25
2021-11-25 08:06:00,,0835.4,5.00,0.00,22.2,22.0,00.0,31.1,24.0,14.8,0000.0,0009.48,0006.60,0006.27
2021-11-25 08:07:00,,0835.5,5.00,0.00,22.2,21.9,00.0,31.1,24.0,14.8,0000.0,0009.43,0006.62,0006.29
2021-11-25 08:08:00,,0835.5,4.99,0.00,22.2,21.8,00.0,31.1,24.0,14.8,0000.0,0009.28,0006.64,0006.31
2021-11-25 08:09:00,,0835.5,5.01,0.00,22.2,21.7,00.0,31.1,23.9,14.7,0000.0,0009.25,0006.64,0006.33
2021-11-25 08:10:00,,0835.5,4.99,0.00,22.2,21.6,00.0,31.1,23.9,14.7,0000.0,0009.25,0006.66,0006.34
2021-11-25 08:11:00,,0835.5,5.00,0.00,22.2,21.6,00.0,31.1,23.9,14.7,0000.0,0008.72,0006.66,0006.35
2021-11-25 08:12:00,,0835.5,5.00,0.00,22.2,21.5,00.0,31.1,23.9,14.7,0000.0,0008.66,0006.69,0006.36
2021-11-25 08:13:00,,0835.5,4.99,0.00,22.1,21.5,00.0,31.1,23.9,14.7,0000.0,0008.78,0006.70,0006.36
2021-11-25 08:14:00,,0835.5,5.00,0.00,22.1,21.5,00.0,31.1,23.8,14.7,0000.0,0008.83,0006.70,0006.35
2021-11-25 08:15:00,,0835.5,5.02,0.00,22.1,21.5,00.0,31.1,23.8,14.7,0000.0,0008.74,0006.70,0006.34
2021-11-25 08:16:00,,0835.4,4.98,0.00,22.1,21.4,00.0,31.1,23.8,14.7,0000.0,0008.88,0006.67,0006.32
2021-11-25 08:17:00,,0835.4,5.02,0.00,22.1,21.4,00.0,31.1,23.8,14.7,0000.0,0008.93,0006.66,0006.31
2021-11-25 08:18:00,,0835.4,4.99,0.00,22.0,21.4,00.0,31.1,23.7,14.7,0000.0,0009.07,0006.68,0006.31
2021-11-25 08:19:00,,0835.4,5.00,0.00,22.0,21.3,00.0,31.1,23.7,14.7,0000.0,0008.97,0006.62,0006.29
2021-11-25 08:20:00,,0835.4,5.01,0.00,22.0,21.3,00.0,31.1,23.7,14.5,0000.0,0008.88,0006.55,0006.22
2021-11-25 08:21:00,,0835.4,5.00,0.00,22.0,21.5,00.0,31.1,23.7,14.5,0000.0,0008.85,0006.49,0006.15
2021-11-25 08:22:00,,0835.4,4.99,0.00,22.1,22.1,00.0,31.1,23.9,14.4,0000.0,0008.86,0006.47,0006.12
2021-11-25 08:23:00,,0835.3,5.02,0.00,22.2,22.8,00.0,31.1,24.1,14.2,0000.0,0008.78,0006.43,0006.07
2021-11-25 08:24:00,,0835.3,4.99,0.00,22.3,22.9,00.0,31.2,24.2,14.1,0000.0,0008.69,0006.39,0006.03
2021-11-25 08:25:00,,0835.3,5.01,0.00,22.3,22.7,00.0,31.2,24.3,14.0,0000.0,0008.58,0006.35,0005.98
2021-11-25 08:26:00,,0835.3,5.00,0.00,22.3,22.5,00.0,31.2,24.2,14.0,0000.0,0008.53,0006.33,0005.95
2021-11-25 08:27:00,,0835.3,4.99,0.00,22.3,22.3,00.0,31.2,24.2,14.0,0000.0,0008.33,0006.30,0005.93
2021-11-25 08:28:00,,0835.4,5.01,0.00,22.3,22.2,00.0,31.2,24.1,14.1,0000.0,0008.29,0006.27,0005.91
2021-11-25 08:29:00,,0835.4,5.00,0.00,22.3,22.0,00.0,31.2,24.1,14.1,0000.0,0008.17,0006.23,0005.88
2021-11-25 08:30:00,,0835.4,5.00,0.00,22.3,21.9,00.0,31.2,24.1,14.1,0000.0,0008.52,0006.24,0005.85
2021-11-25 08:31:00,,0835.4,5.00,0.00,22.3,21.8,00.0,31.2,24.0,14.0,0000.0,0009.08,0006.26,0005.86
2021-11-25 08:32:00,,0835.4,5.00,0.00,22.3,21.7,00.0,31.2,24.0,14.0,0000.0,0009.37,0006.25,0005.86
2021-11-25 08:33:00,,0835.4,5.00,0.00,22.2,21.7,00.0,31.2,24.0,13.9,0000.0,0009.37,0006.21,0005.83
2021-11-25 08:34:00,,0835.4,5.01,0.00,22.2,21.6,00.0,31.2,23.9,13.9,0000.0,0009.41,0006.18,0005.82
2021-11-25 08:35:00,,0835.4,4.99,0.00,22.2,21.5,00.0,31.2,23.9,13.9,0000.0,0009.42,0006.18,0005.81
2021-11-25 08:36:00,,0835.5,5.00,0.00,22.2,21.5,00.0,31.2,23.8,13.9,0000.0,0009.35,0006.16,0005.82
2021-11-25 08:37:00,,0835.5,4.99,0.00,22.1,21.5,00.0,31.2,23.8,13.9,0000.0,0009.27,0006.11,0005.81
2021-11-25 08:38:00,,0835.5,4.99,0.00,22.1,21.4,00.0,31.2,23.8,13.9,0000.0,0009.31,0006.11,0005.78
2021-11-25 08:39:00,,0835.5,5.01,0.00,22.1,21.4,00.0,31.2,23.8,13.9,0000.0,0009.30,0006.10,0005.76
2021-11-25 08:40:00,,0835.5,5.00,0.00,22.1,21.4,00.0,31.2,23.8,14.0,0000.0,0009.53,0006.09,0005.73
2021-11-25 08:41:00,,0835.5,5.00,0.00,22.0,21.3,00.0,31.2,23.7,14.0,0000.0,0009.51,0006.06,0005.71
2021-11-25 08:42:00,,0835.5,5.01,0.00,22.1,21.6,00.0,31.2,23.8,14.0,0000.0,0008.91,0006.04,0005.71
2021-11-25 08:43:00,,0835.5,4.99,0.00,22.1,22.3,00.0,31.2,24.0,13.9,0000.0,0008.63,0006.07,0005.70
2021-11-25 08:44:00,,0835.6,5.00,0.00,22.3,23.0,00.0,31.2,24.2,13.9,0000.0,0008.62,0006.09,0005.71
2021-11-25 08:45:00,,0835.5,5.00,0.00,22.4,23.4,00.0,31.3,24.4,13.8,0000.0,0008.69,0006.15,0005.75
2021-11-25 08:46:00,,0835.6,5.00,0.00,22.5,23.1,00.0,31.3,24.4,13.8,0000.0,0008.95,0006.20,0005.80
2021-11-25 08:47:00,,0835.6,5.01,0.00,22.5,22.8,00.0,31.3,24.3,13.8,0000.0,0009.00,0006.25,0005.84
2021-11-25 08:48:00,,0835.6,5.00,0.00,22.4,22.6,00.0,31.3,24.2,13.9,0000.0,0009.07,0006.33,0005.90
2021-11-25 08:49:00,,0835.5,5.00,0.00,22.4,22.4,00.0,31.3,24.2,14.0,0000.0,0009.07,0006.38,0005.96
2021-11-25 08:50:00,,0835.5,5.00,0.00,22.4,22.2,00.0,31.3,24.2,14.1,0000.0,0009.20,0006.46,0006.03
2021-11-25 08:51:00,,0835.6,5.01,0.00,22.4,22.1,00.0,31.3,24.1,14.1,0000.0,0009.07,0006.50,0006.10
2021-11-25 08:52:00,,0835.5,5.00,0.00,22.4,21.9,00.0,31.3,24.1,14.1,0000.0,0009.46,0006.61,0006.16
2021-11-25 08:53:00,,0835.6,5.00,0.00,22.3,21.9,00.0,31.3,24.1,14.1,0000.0,0009.73,0006.69,0006.24
2021-11-25 08:54:00,,0835.6,5.00,0.00,22.3,21.8,00.0,31.3,24.0,14.1,0000.0,0009.70,0006.72,0006.31
2021-11-25 08:55:00,,0835.5,4.99,0.00,22.3,21.7,00.0,31.3,24.0,14.2,0000.0,0009.94,0006.77,0006.38
2021-11-25 08:56:00,,0835.6,5.01,0.00,22.3,21.6,00.0,31.3,23.9,14.3,0000.0,0010.09,0006.81,0006.43
2021-11-25 08:57:00,,0835.6,5.00,0.00,22.2,21.6,00.0,31.3,23.9,14.4,0000.0,0010.12,0006.84,0006.47
2021-11-25 08:58:00,,0835.6,5.00,0.00,22.2,21.6,00.0,31.3,23.9,14.3,0000.0,0011.08,0006.85,0006.49
2021-11-25 08:59:00,,0835.6,5.00,0.00,22.2,21.5,00.0,31.3,23.9,14.3,0000.0,0011.46,0006.85,0006.50
